CW9443 Weather Reports


Display with metric or nautical units.
time (UTC)temp
F
wind
direction
speed
MPH
gust
MPH
rain 1hr
in
rain 24hr
in
rain mn
in
humidity
%
barometer
mb
20260505001548 63 280 0.0 0.0 0.00 0.00 0.00 62 1013.3
20260505000055 65 238 0.0 0.0 0.00 0.00 0.00 57 1013.1
20260504233041 65 269 0.0 0.0 0.00 0.00 0.00 61 1013.0
20260504231541 65 261 1.0 0.0 0.00 0.00 0.00 60 1013.1
20260504230045 66 263 0.0 0.0 0.00 0.00 0.00 58 1013.1
20260504223048 66 261 1.0 0.0 0.00 0.00 0.00 57 1013.4
20260504221547 66 286 1.0 0.0 0.00 0.00 0.00 53 1013.5
20260504220047 66 283 1.0 0.0 0.00 0.00 0.00 58 1013.9
20260504213058 67 303 1.0 0.0 0.00 0.00 0.00 54 1014.1
20260504211557 67 249 1.0 0.0 0.00 0.00 0.00 53 1013.9
20260504210106 68 261 1.0 0.0 0.00 0.00 0.00 51 1014.0
20260504203049 69 244 1.0 0.0 0.00 0.00 0.00 49 1013.8
20260504201542 68 250 2.0 0.0 0.00 0.00 0.00 48 1013.9
20260504200043 69 240 2.0 0.0 0.00 0.00 0.00 45 1013.7
20260504193035 67 279 2.0 0.0 0.00 0.00 0.00 50 1014.0
20260504191534 67 250 2.0 0.0 0.00 0.00 0.00 51 1014.0
20260504190033 67 255 1.0 0.0 0.00 0.00 0.00 52 1014.1
20260504183040 65 280 2.0 0.0 0.00 0.00 0.00 54 1014.3
20260504181539 65 261 2.0 0.0 0.00 0.00 0.00 55 1014.5
20260504180037 65 268 1.0 0.0 0.00 0.00 0.00 57 1014.4
20260504173057 63 256 1.0 0.0 0.00 0.00 0.00 60 1014.3
20260504171545 63 256 1.0 0.0 0.00 0.00 0.00 59 1014.3
20260504081509 55 249 0.0 0.0 0.00 0.00 0.00 84 1014.1
20260504050010 56 250 0.0 0.0 0.00 0.00 0.00 80 1013.9
20260504043028 56 249 0.0 0.0 0.00 0.00 0.00 79 1013.3
20260504041539 56 250 0.0 0.0 0.00 0.00 0.00 79 1013.2
20260504040027 56 249 0.0 0.0 0.00 0.00 0.00 78 1012.8
20260504033011 57 250 0.0 0.0 0.00 0.00 0.00 79 1012.7
20260504031509 57 250 0.0 0.0 0.00 0.00 0.00 79 1012.7
20260504030008 57 249 0.0 0.0 0.00 0.00 0.00 79 1012.6
20260504023014 57 249 0.0 0.0 0.00 0.00 0.00 79 1012.6
20260504021514 58 249 1.0 0.0 0.00 0.00 0.00 79 1012.2
20260504020018 58 252 1.0 0.0 0.00 0.00 0.00 76 1012.3
20260504013037 59 244 1.0 0.0 0.00 0.00 0.00 74 1011.9
20260504011528 59 204 0.0 0.0 0.00 0.00 0.00 69 1012.0
20260504010028 61 233 0.0 0.0 0.00 0.00 0.00 65 1012.0
20260504003029 62 223 0.0 0.0 0.00 0.00 0.00 64 1011.5